Temperature
17 17 16 16 16 16 16 15 15 15 15 14 14 14 14 14 14 14 14 13 13 13 13 13 13 13 13 13 13 13 12 12 12 12 12 12 12 12 13 12 12 12 13
17 16 16 16 16 16 16 15 15 15 15 14 14 14 14 14 14 14 13 13 13 13 13 13 13 13 13 12 12 12 12 12 12 12 12 12 12 12 12 12 12 12 12
17 16 16 16 16 16 16 15 15 15 15 14 14 14 14 14 13 13 13 13 13 13 13 12 12 12 12 12 12 12 12 12 12 12 12 12 12 12 12 12 12 12 12
17 17 16 16 16 16 15 15 15 15 14 14 14 14 14 14 13 13 13 13 13 13 12 12 12 12 12 12 12 11 11 11 11 11 11 11 11 11 11 11 12 12 12
17 17 16 16 16 16 15 15 15 15 14 14 14 14 14 13 13 13 13 13 12 12 12 12 12 11 11 11 11 11 11 11 11 11 11 11 11 11 11 11 11 11 11
17 17 17 16 16 16 15 15 15 15 14 14 14 14 13 13 13 13 12 12 12 12 12 12 11 11 11 11 11 10 10 10 10 10 10 10 10 10 10 10 10 10 10
17 17 16 16 16 16 15 15 15 15 14 14 14 14 13 13 13 12 12 12 12 12 11 11 11 11 11 11 10 10 10 10 10 10 10 10 10 10 10 10 10 10 10
17 17 17 16 16 15 15 15 15 14 14 14 14 13 13 13 12 12 12 12 12 11 11 11 11 11 11 11 10 10 10 10 10 10 9 9 9 9 9 9 9 9 9
17 17 17 16 16 15 15 15 15 14 14 14 13 13 13 13 12 12 12 12 11 11 11 11 11 11 10 10 10 10 10 10 9 9 9 9 9 9 9 9 9 9 9
18 17 17 16 16 16 15 15 15 14 14 13 13 13 13 12 12 12 11 11 11 11 11 10 10 10 10 10 10 10 10 10 9 9 9 9 9 9 9 8 8 8 8
17 17 16 16 16 15 15 15 14 14 13 13 13 13 12 12 12 12 11 11 11 11 10 10 10 10 10 10 10 10 9 9 9 9 9 9 9 9 8 8 8 8 8
17 17 16 16 15 15 15 14 14 14 13 13 13 12 12 12 12 11 11 11 10 10 10 10 10 10 10 9 9 9 9 9 9 9 9 9 8 8 8 8 8 8 7
17 16 16 16 15 15 14 14 14 13 13 13 13 12 12 12 11 11 11 11 10 10 10 10 9 9 9 9 9 9 8 8 8 8 8 8 8 8 8 8 7 7 7
17 16 16 15 15 15 14 14 14 13 13 13 13 12 12 12 11 11 11 10 10 10 9 9 9 9 9 9 9 8 8 8 8 8 8 8 7 7 7 7 7 7 7
16 16 15 15 15 14 14 14 13 13 13 13 13 12 12 12 11 11 11 10 10 9 9 9 9 9 9 9 8 8 8 8 8 7 7 7 7 7 7 6 6 6 6
16 16 15 15 15 14 14 14 13 13 13 12 12 12 12 11 11 11 11 10 10 9 9 9 9 9 8 8 8 8 8 7 7 7 7 7 7 6 6 6 6 5 5
16 15 15 15 14 14 14 13 13 13 13 12 12 12 11 11 11 11 10 10 9 9 9 9 9 8 8 8 8 7 7 7 7 7 7 6 6 6 6 5 5 5 5
15 15 15 15 14 14 13 13 13 13 12 12 12 12 11 11 11 10 10 9 9 9 9 9 8 8 8 8 7 7 7 7 7 7 6 6 6 5 5 5 5 5 5
15 15 14 14 14 13 13 13 12 12 12 12 12 11 11 11 10 10 9 9 9 9 9 8 8 8 7 7 7 7 7 7 6 6 6 6 5 5 5 5 5 4 4
15 14 14 14 13 13 13 12 12 12 12 11 11 11 11 10 10 10 9 9 9 9 8 8 8 8 7 7 7 7 6 6 6 6 6 5 5 5 4 4 4 4 4
14 14 13 13 13 13 12 12 12 12 11 11 11 11 10 10 10 9 9 9 9 8 8 8 8 7 7 7 6 6 6 6 6 6 5 5 5 4 4 4 4 4 3
14 13 13 13 13 12 12 12 11 11 11 11 10 10 10 10 9 9 9 9 8 8 8 8 7 7 7 6 6 6 6 6 5 5 5 5 4 4 4 4 3 3 3
13 13 13 12 12 12 12 11 11 11 10 10 10 10 9 9 9 9 9 8 8 8 8 7 7 7 6 6 6 6 5 5 5 5 4 4 4 4 4 3 3 3 3
12 12 12 12 12 11 11 11 11 10 10 10 9 9 9 9 9 8 8 8 8 8 7 7 7 6 6 6 6 5 5 5 4 4 4 4 4 3 3 3 3 3 2
12 12 12 12 11 11 11 10 10 10 9 9 9 9 9 8 8 8 8 8 7 7 7 6 6 6 6 5 5 5 5 4 4 4 4 3 3 3 3 3 2 2 2
11 11 11 11 11 10 10 10 9 9 9 9 9 8 8 8 8 7 7 7 7 7 6 6 6 6 5 5 5 4 4 4 4 4 3 3 3 3 3 2 2 2 2
Wind_Speed
6 5 5 4 4 4 3 3 2 2 2 3 3 3 3 4 3 4 4 4 5 4 4 5 4 4 3 3 2 2 2 1 0 3 3 4 5 7 8 9 9 9 9
6 6 6 5 4 4 3 3 3 3 2 3 3 3 3 3 3 3 3 4 4 4 4 4 4 4 4 3 3 3 2 1 1 2 3 4 4 5 6 6 7 8 8
7 6 6 6 5 5 4 3 3 3 3 3 3 3 3 3 3 3 3 3 3 3 3 3 3 4 4 3 3 3 2 2 1 0 3 3 3 4 5 5 6 5 7
7 7 7 6 6 5 4 4 4 4 4 3 3 3 3 2 3 3 3 3 3 3 3 3 3 4 3 3 3 3 3 3 2 2 2 3 3 3 3 4 5 4 4
9 8 7 6 5 5 5 4 4 4 4 3 4 3 3 2 2 3 3 3 3 3 4 3 3 5 5 4 3 2 3 2 2 2 2 3 3 3 3 3 3 4 3
9 8 7 7 6 6 5 5 4 4 3 4 3 3 2 2 3 5 4 3 2 3 2 3 3 5 6 8 8 6 5 3 2 1 2 2 3 3 3 3 2 3 3
9 8 8 8 7 6 6 5 5 4 4 4 3 3 2 1 3 5 5 4 3 2 1 2 2 3 5 4 6 7 6 6 4 1 0 2 3 3 3 3 3 3 3
9 9 9 9 8 7 6 6 5 4 4 3 3 3 2 1 3 4 5 4 3 1 1 1 1 2 2 3 3 4 4 4 4 2 1 3 3 3 2 2 2 2 3
10 10 9 10 9 8 7 6 4 4 3 3 3 3 2 2 2 4 5 3 2 1 1 0 0 1 3 3 3 3 4 4 5 6 5 5 5 5 3 2 2 3 3
11 10 10 10 10 9 8 6 4 4 4 4 3 3 3 3 2 3 5 2 1 0 1 2 1 1 3 2 2 1 3 4 4 5 5 6 6 5 5 2 1 1 2
9 9 9 9 9 8 7 5 5 5 4 3 3 2 2 3 3 3 5 3 2 1 1 2 2 3 3 2 1 0 2 3 3 3 3 4 4 4 4 4 2 1 1
9 9 9 8 8 7 7 6 5 6 5 4 2 1 1 2 2 3 4 4 4 3 2 2 3 3 3 3 2 3 4 3 1 2 2 3 3 3 3 5 5 4 3
9 9 8 8 6 7 8 7 5 5 5 4 4 3 2 2 2 3 4 4 5 3 2 3 3 3 3 3 4 4 3 1 1 1 2 3 3 3 4 4 4 4 5
10 9 8 8 6 6 6 6 6 6 5 5 4 4 3 3 3 3 2 2 3 2 2 2 2 2 2 2 3 3 1 1 1 2 3 3 3 2 3 2 3 3 3
9 8 8 7 7 6 5 5 6 7 7 7 6 6 5 5 6 7 5 4 4 3 1 0 1 1 2 2 2 2 2 1 2 2 2 3 3 3 3 3 2 2 3
9 8 7 6 6 5 5 2 2 4 6 7 7 6 6 6 6 6 7 6 5 5 3 1 2 3 3 3 3 3 3 3 3 3 3 3 3 4 4 3 2 3 4
9 9 7 7 7 6 6 5 3 1 1 3 5 6 5 5 5 5 6 5 4 5 3 3 4 4 4 4 4 3 4 4 3 3 4 4 4 4 4 4 4 4 4
8 9 8 7 7 7 6 6 5 5 3 3 3 5 5 5 5 5 5 3 1 2 3 4 4 4 4 4 4 4 4 4 3 3 4 4 4 4 4 4 5 5 6
7 6 6 6 6 6 5 5 5 5 4 3 2 2 4 4 3 4 5 3 4 4 5 5 5 5 4 5 5 5 5 4 4 4 4 4 4 4 4 5 5 7 6
6 9 8 6 5 5 5 5 5 5 5 4 4 4 3 2 2 3 4 4 5 5 5 6 6 5 5 5 5 4 4 5 5 5 5 5 5 4 5 6 6 6 6
5 6 9 6 6 6 6 6 6 5 5 5 6 6 7 5 6 6 5 6 6 7 7 6 6 5 5 5 5 5 6 6 5 5 5 5 5 5 5 6 6 6 7
5 5 6 6 6 6 5 5 5 5 6 6 4 4 7 5 5 5 6 6 7 7 6 6 6 6 6 6 6 6 6 6 6 6 6 6 6 6 6 6 6 6 7
5 6 5 4 5 6 5 5 5 5 5 5 4 4 4 5 5 6 6 6 6 6 7 7 6 6 8 9 9 8 7 7 7 7 6 6 6 6 6 7 8 8 8
5 6 6 5 4 5 5 5 5 5 5 5 4 4 5 5 6 6 6 5 5 6 7 7 8 9 10 9 10 10 11 12 11 9 8 7 7 6 6 7 8 9 9
5 5 5 5 5 5 5 4 4 4 4 4 5 4 4 5 5 6 5 5 6 6 7 8 8 9 11 11 11 11 13 13 12 10 9 7 7 7 7 8 8 8 8
4 4 4 4 4 4 4 4 4 5 5 4 4 4 4 5 5 5 5 5 5 5 6 7 8 9 10 10 12 12 13 12 12 12 9 6 6 7 7 7 9 8 9
Wind_Direction
161 155 144 146 139 133 134 142 142 122 115 106 102 92 78 64 60 66 58 53 56 41 35 43 31 22 30 26 33 42 45 101 192 315 326 332 352 1 4 15 20 22 26
158 149 148 142 136 136 140 143 140 133 125 120 112 102 92 78 68 73 66 56 60 50 34 37 24 29 29 24 33 32 28 45 156 323 335 342 346 349 355 9 13 19 22
151 148 145 145 148 153 152 142 134 130 120 109 105 106 100 92 84 76 80 68 63 56 46 45 28 37 32 25 32 29 17 26 45 16 333 334 335 346 355 4 7 8 15
154 153 158 164 164 161 151 140 135 132 124 119 109 107 106 100 93 87 85 78 66 52 41 42 40 45 40 29 36 30 30 39 36 27 348 338 333 330 355 2 359 359 359
160 163 172 167 156 147 142 138 133 131 130 125 112 100 97 105 117 114 101 94 79 57 39 32 35 49 48 45 50 46 49 48 35 26 1 349 346 350 352 339 348 342 350
167 172 166 157 154 153 151 143 135 130 124 121 122 119 107 105 121 122 117 103 91 77 51 26 26 38 41 43 48 54 57 56 43 30 354 342 327 323 324 334 337 346 337
172 170 166 163 162 162 155 145 146 145 136 134 136 131 131 143 128 123 114 109 100 88 67 38 34 33 37 35 35 37 32 34 40 100 345 301 303 307 325 337 335 325 294
172 173 171 166 166 161 155 159 158 149 150 154 156 159 157 183 142 135 122 103 97 86 70 70 50 359 11 51 39 27 14 1 354 5 279 275 287 294 285 293 288 306 298
178 179 175 168 164 164 168 171 165 156 160 164 163 165 172 215 184 154 131 110 99 45 347 3 287 323 348 44 51 24 1 344 355 360 360 351 342 342 355 17 358 3 336
186 181 174 168 167 172 174 170 164 163 169 162 162 178 186 210 211 174 146 134 133 305 327 323 326 324 340 24 70 36 347 320 331 344 352 356 354 353 1 10 333 338 327
173 165 166 169 170 168 163 160 156 155 150 158 167 187 200 216 217 194 168 156 175 192 263 294 298 319 334 344 23 239 286 307 316 328 334 338 344 350 352 350 335 277 292
155 158 165 166 167 160 154 155 154 153 155 166 171 204 239 243 226 219 196 187 176 177 229 255 272 305 320 330 328 309 319 347 358 348 343 337 334 331 330 330 327 313 283
154 160 162 159 159 157 160 160 157 160 167 179 184 204 232 240 242 233 223 212 197 194 231 252 271 300 320 323 319 322 336 360 355 335 313 301 291 295 309 319 322 324 320
159 161 159 159 159 158 162 167 169 176 182 187 195 209 222 233 236 230 223 219 213 222 250 274 292 309 306 294 312 327 325 267 254 261 276 281 293 306 309 310 309 320 322
159 160 162 164 164 168 173 183 185 195 192 191 202 201 200 223 232 218 200 209 212 217 194 13 329 318 306 305 305 300 291 291 282 271 272 286 294 298 300 303 297 307 302
160 165 169 168 168 168 170 174 216 206 212 208 201 196 215 227 230 216 214 215 210 194 163 216 243 248 255 264 275 286 281 269 260 258 266 270 276 284 291 294 286 283 288
171 173 172 172 173 175 177 179 191 244 221 211 211 208 211 214 210 205 207 206 200 178 188 228 237 242 248 254 256 257 264 266 257 254 262 266 269 275 280 285 285 283 284
171 174 173 178 180 181 184 187 185 184 201 242 241 225 214 211 209 204 189 160 199 202 218 231 239 244 246 250 253 255 260 269 268 262 260 262 263 268 276 279 280 277 282
173 177 176 175 177 180 179 179 184 189 198 208 216 238 222 209 204 201 174 186 214 227 230 235 238 241 246 248 250 252 252 256 261 261 257 258 258 259 269 274 277 278 280
180 182 172 170 172 176 176 181 188 194 201 206 214 218 194 172 206 222 215 217 222 230 232 236 240 241 242 244 247 249 254 257 260 258 257 260 259 257 262 268 271 274 275
172 178 174 169 178 183 185 191 194 196 205 215 225 219 198 200 213 220 225 227 229 232 234 236 238 239 239 241 244 247 251 257 258 258 257 259 259 261 261 262 267 271 276
167 171 175 181 184 186 188 190 191 198 208 218 231 225 213 212 219 225 230 235 236 236 234 232 235 235 231 231 235 242 250 255 256 258 259 259 259 260 262 263 267 271 275
165 168 172 179 183 184 185 189 194 203 213 218 217 215 216 224 231 233 237 240 240 241 240 234 237 243 246 245 244 238 242 249 251 250 255 259 259 261 261 262 266 271 272
167 170 174 178 179 182 189 197 201 206 210 215 218 220 224 229 236 241 243 244 245 246 244 240 240 245 249 254 254 252 254 259 262 257 249 252 257 261 262 264 266 267 270
166 171 176 180 184 189 194 198 202 207 212 217 222 228 233 236 243 249 250 249 248 249 249 247 248 251 254 256 259 261 264 265 266 265 260 250 251 255 260 264 268 271 272
166 169 176 179 183 189 193 200 205 210 215 220 224 228 233 240 247 251 254 254 254 257 258 257 254 256 260 262 263 265 268 269 269 270 263 252 251 258 262 267 270 272 273
Height
1567 1569 1570 1572 1573 1574 1574 1574 1574 1574 1574 1574 1574 1573 1572 1572 1571 1570 1569 1568 1567 1566 1565 1564 1563 1562 1561 1560 1559 1558 1557 1557 1555 1554 1553 1551 1549 1548 1546 1545 1544 1543 1541
1566 1568 1570 1571 1572 1573 1574 1574 1574 1575 1574 1574 1574 1573 1573 1572 1571 1570 1569 1568 1567 1566 1565 1564 1563 1562 1561 1560 1559 1557 1557 1556 1555 1553 1552 1550 1549 1547 1546 1544 1543 1542 1541
1565 1567 1568 1570 1571 1572 1573 1574 1574 1574 1574 1574 1574 1574 1573 1572 1571 1571 1570 1569 1567 1566 1565 1564 1563 1561 1560 1559 1558 1557 1556 1555 1554 1552 1551 1549 1548 1546 1545 1543 1542 1541 1540
1563 1565 1567 1569 1570 1571 1572 1573 1574 1574 1574 1574 1574 1573 1573 1572 1571 1570 1569 1568 1567 1566 1565 1564 1562 1561 1559 1558 1557 1556 1555 1554 1553 1551 1550 1548 1547 1545 1544 1542 1541 1540 1539
1561 1563 1565 1567 1569 1570 1571 1572 1573 1573 1573 1573 1573 1573 1572 1572 1571 1570 1569 1568 1567 1566 1565 1564 1562 1561 1559 1558 1557 1555 1554 1553 1552 1550 1549 1547 1546 1544 1543 1541 1540 1539 1538
1558 1561 1564 1566 1567 1569 1570 1571 1571 1572 1572 1572 1572 1572 1572 1571 1570 1570 1569 1568 1567 1566 1565 1564 1562 1561 1559 1558 1556 1555 1554 1552 1551 1550 1548 1546 1545 1544 1542 1541 1539 1537 1536
1556 1558 1561 1563 1565 1567 1568 1569 1570 1570 1571 1571 1571 1571 1571 1570 1570 1569 1568 1567 1566 1565 1564 1563 1562 1560 1559 1557 1556 1555 1553 1552 1551 1549 1547 1546 1544 1543 1541 1540 1538 1537 1535
1553 1555 1558 1560 1562 1564 1565 1567 1568 1568 1569 1569 1570 1570 1569 1569 1568 1568 1567 1566 1566 1565 1564 1562 1561 1560 1558 1557 1555 1554 1552 1551 1550 1548 1547 1545 1544 1542 1541 1539 1537 1536 1535
1549 1552 1554 1557 1559 1561 1563 1564 1565 1566 1567 1568 1568 1568 1568 1567 1567 1566 1566 1565 1564 1564 1563 1561 1560 1559 1558 1556 1555 1553 1552 1550 1549 1547 1546 1544 1543 1541 1539 1538 1536 1534 1532
1545 1548 1551 1554 1556 1558 1560 1562 1563 1564 1565 1566 1566 1566 1566 1566 1565 1565 1564 1564 1563 1562 1561 1560 1559 1558 1556 1555 1553 1552 1550 1549 1547 1546 1545 1543 1541 1540 1538 1536 1534 1532 1530
1542 1545 1548 1551 1553 1555 1557 1559 1560 1561 1562 1563 1563 1564 1564 1564 1563 1563 1562 1562 1561 1560 1560 1559 1557 1556 1555 1554 1552 1550 1549 1547 1546 1544 1543 1541 1540 1538 1536 1534 1533 1531 1529
1539 1542 1545 1548 1550 1552 1554 1556 1557 1558 1559 1560 1560 1561 1561 1561 1561 1560 1560 1560 1559 1558 1558 1557 1556 1555 1553 1552 1550 1549 1547 1545 1544 1542 1541 1539 1537 1536 1534 1532 1531 1529 1528
1535 1538 1541 1544 1547 1549 1551 1552 1554 1555 1556 1556 1557 1558 1558 1558 1558 1558 1557 1557 1556 1556 1555 1554 1553 1552 1551 1550 1548 1547 1545 1543 1541 1540 1538 1537 1535 1533 1532 1530 1529 1527 1525
1532 1535 1538 1541 1543 1545 1547 1549 1550 1551 1552 1553 1554 1554 1555 1555 1555 1555 1554 1554 1553 1553 1552 1551 1550 1549 1548 1547 1545 1544 1542 1541 1539 1537 1535 1534 1532 1531 1529 1527 1525 1523 1521
1528 1531 1534 1537 1539 1541 1543 1545 1547 1548 1549 1550 1550 1551 1551 1551 1551 1551 1551 1550 1550 1549 1548 1548 1547 1546 1545 1543 1542 1541 1539 1538 1536 1535 1533 1531 1529 1527 1526 1524 1522 1520 1518
1525 1528 1530 1533 1535 1537 1540 1541 1543 1544 1545 1546 1547 1547 1547 1548 1548 1547 1547 1547 1546 1546 1545 1543 1543 1542 1541 1539 1538 1537 1536 1534 1533 1531 1529 1527 1526 1524 1522 1520 1518 1516 1514
1522 1524 1527 1529 1531 1533 1535 1537 1538 1540 1541 1542 1543 1543 1543 1544 1544 1544 1543 1543 1542 1542 1540 1539 1538 1537 1537 1536 1534 1533 1532 1530 1529 1527 1525 1523 1522 1520 1518 1516 1514 1512 1510
1519 1521 1523 1525 1527 1528 1530 1532 1534 1535 1536 1537 1538 1539 1539 1539 1539 1539 1539 1539 1538 1537 1536 1535 1534 1533 1532 1531 1530 1529 1527 1526 1524 1523 1521 1519 1518 1516 1514 1512 1510 1508 1505
1515 1517 1519 1521 1523 1525 1526 1528 1529 1530 1531 1532 1533 1534 1534 1535 1535 1535 1534 1534 1533 1532 1531 1531 1530 1529 1528 1527 1525 1524 1523 1521 1519 1518 1516 1515 1513 1511 1509 1507 1505 1503 1501
1511 1513 1515 1517 1519 1520 1522 1523 1524 1525 1526 1527 1528 1528 1529 1529 1529 1529 1529 1529 1528 1527 1526 1525 1525 1524 1523 1522 1520 1519 1517 1516 1514 1513 1511 1510 1508 1506 1504 1502 1500 1498 1496
1507 1509 1511 1513 1514 1516 1517 1518 1519 1520 1521 1522 1523 1524 1524 1524 1524 1524 1524 1523 1522 1522 1521 1520 1519 1518 1517 1516 1515 1513 1512 1510 1509 1507 1506 1504 1502 1501 1499 1497 1495 1492 1490
1503 1505 1506 1508 1510 1511 1512 1514 1515 1515 1516 1517 1518 1518 1519 1519 1518 1518 1518 1517 1517 1516 1515 1514 1513 1512 1511 1510 1508 1507 1505 1504 1503 1501 1499 1498 1496 1494 1492 1490 1488 1486 1484
1499 1501 1502 1504 1505 1506 1508 1508 1509 1510 1511 1511 1512 1512 1513 1513 1512 1512 1512 1511 1511 1510 1509 1508 1506 1505 1505 1503 1502 1501 1499 1498 1496 1495 1493 1491 1489 1488 1486 1484 1482 1480 1478
1495 1496 1498 1499 1500 1501 1502 1503 1504 1505 1506 1506 1507 1507 1507 1507 1506 1506 1505 1505 1504 1503 1502 1501 1500 1499 1498 1497 1495 1494 1493 1491 1490 1488 1486 1484 1482 1480 1479 1477 1475 1473 1471
1491 1492 1494 1495 1496 1496 1497 1498 1499 1500 1500 1501 1501 1501 1501 1501 1500 1500 1499 1498 1497 1496 1495 1494 1493 1492 1491 1490 1489 1487 1486 1484 1483 1481 1479 1477 1475 1474 1472 1470 1468 1466 1464
1487 1488 1489 1490 1491 1492 1493 1493 1494 1495 1495 1495 1495 1495 1495 1495 1494 1493 1492 1491 1490 1489 1488 1487 1486 1485 1484 1483 1481 1480 1479 1477 1476 1474 1473 1471 1469 1467 1465 1463 1461 1459 1457